[[{"header":{"parameterUnit":"m.s-1","parameterCategory":2,"la1":30.2991,"la2":30.254,"lo1":-89.0895,"lo2":-89.0444,"dy":0.0017,"dx":0.0017,"nx":28,"ny":28,"refTime":"2024-06-21T21:00:00:Z","depth":"0","parameterNumber":2,"parameterNumberName":"U-component_of_CURRENTS"},"data":[0,0,0,0,0,0,0,0,0,0,0,0,0,0,0,0,0,0,0,0,0,0,0,0,0,0,0,0,0,0,0,0,0,0,0,0,0,0,0,0,0,0,0,0,0,0,0,0,0,0,0,0,0,0,0,0,0,0,-0.0289,-0.0289,0,-0.0328,-0.0328,-0.0329,-0.0336,-0.0336,-0.0335,-0.0335,-0.0337,-0.0338,-0.0338,0,0,0,0,0,0,0,0,0,0,0,0,0,-0.029,-0.0289,-0.0289,-0.0289,-0.0289,-0.0328,-0.0328,-0.0329,-0.0336,-0.0336,-0.0335,-0.0334,-0.0337,-0.0338,-0.0338,0,0,0,0,0,0,0,0,0,0,0,0,0,-0.0307,-0.0289,-0.0289,-0.0296,-0.0297,-0.0327,-0.0328,-0.0329,-0.0336,-0.0335,-0.0335,-0.0334,-0.0337,-0.0338,-0.0338,-0.0359,0,0,-0.0341,-0.0341,0,0,0,0,0,0,0,0,-0.0306,-0.0307,-0.0295,-0.0295,-0.0296,-0.0324,-0.033,-0.0337,-0.0336,-0.0324,-0.0335,-0.0334,-0.0329,-0.033,-0.0343,-0.0359,-0.0359,-0.0341,-0.0341,-0.0342,-0.0342,0,0,0,0,0,0,0,-0.0305,-0.0306,-0.0306,-0.0295,-0.0296,-0.0321,-0.0322,-0.0332,-0.0331,-0.0325,-0.0325,-0.0326,-0.0329,-0.0342,-0.0343,-0.0359,-0.0341,-0.0342,-0.0342,-0.0343,-0.0411,-0.0412,0,0,0,0,0,0,-0.0293,-0.0304,-0.0305,-0.0307,-0.0297,-0.0321,-0.0322,-0.0318,-0.0332,-0.0333,-0.0326,-0.0326,-0.0341,-0.0342,-0.0343,-0.0376,-0.0342,-0.0343,-0.0343,-0.041,-0.0411,-0.0413,0,0,0,0,0,0,-0.0292,-0.0292,-0.0303,-0.0306,-0.0308,-0.0321,-0.0316,-0.0319,-0.0331,-0.0333,-0.0334,-0.0335,-0.034,-0.0342,-0.0363,-0.0376,-0.0343,-0.0344,-0.0408,-0.041,-0.0412,-0.0438,0,0,0,0,0,0,-0.0292,-0.0292,-0.0288,-0.0304,-0.0308,-0.0326,-0.0317,-0.032,-0.0332,-0.0332,-0.0341,-0.034,-0.034,-0.0362,-0.0364,-0.0376,-0.0344,-0.0407,-0.0409,-0.0412,-0.0435,-0.044,-0.0445,0,0,0,0,0,-0.0292,-0.0288,-0.0288,-0.0288,-0.0301,-0.0327,-0.0331,-0.0339,-0.0333,-0.0346,-0.0355,-0.034,-0.0379,-0.0364,-0.0366,-0.0379,-0.0405,-0.0408,-0.0411,-0.0433,-0.0439,-0.0445,0,0,0,0,0,0,-0.0285,-0.0288,-0.0288,-0.0284,-0.0306,-0.0327,-0.0336,-0.0342,-0.0361,-0.036,-0.0358,-0.036,-0.0382,-0.0383,-0.0366,-0.0408,-0.0389,-0.0393,-0.0405,-0.0411,-0.0416,-0.0416,-0.0345,0,0,0,0,0,-0.0282,-0.0277,-0.0294,-0.0292,-0.0302,-0.0321,-0.0332,-0.0342,-0.0358,-0.0366,-0.0371,-0.0382,-0.0398,-0.0405,-0.0418,-0.0442,-0.045,-0.0453,-0.0458,-0.0462,-0.0465,-0.0502,-0.051,-0.0423,-0.0423,-0.0423,0,0,-0.0276,-0.0278,-0.0275,-0.029,-0.0306,-0.0335,-0.0326,-0.0348,-0.0372,-0.0363,-0.0392,-0.0397,-0.0409,-0.0437,-0.0447,-0.0437,-0.0491,-0.0465,-0.0468,-0.0469,-0.0506,-0.0514,-0.0522,-0.0425,-0.0424,-0.0424,0,0,-0.0276,-0.027,-0.0276,-0.03,-0.0325,-0.0342,-0.0348,-0.0376,-0.0387,-0.0419,-0.0418,-0.0436,-0.0458,-0.0472,-0.0481,-0.0523,-0.0515,-0.0523,-0.0546,-0.0583,-0.059,-0.0596,-0.0615,-0.0623,-0.0526,-0.0526,-0.0526,0,-0.027,-0.0284,-0.0285,-0.0311,-0.0334,-0.0346,-0.0378,-0.0397,-0.0427,-0.0439,-0.0431,-0.0474,-0.0478,-0.0516,-0.0529,-0.0532,-0.0545,-0.052,-0.0588,-0.0595,-0.0601,-0.0619,-0.0627,-0.0527,-0.0527,-0.0527,-0.0527,0,-0.0286,-0.0307,-0.0317,-0.0351,-0.0375,-0.0405,-0.0433,-0.0453,-0.0463,-0.048,-0.0512,-0.0526,-0.0549,-0.0555,-0.0553,-0.0599,-0.0591,-0.0588,-0.057,-0.0611,-0.0627,-0.0636,-0.0529,-0.0529,-0.0528,-0.0528,0,0,-0.0253,-0.0315,-0.0322,-0.0356,-0.0403,-0.0427,-0.0463,-0.0502,-0.052,-0.0546,-0.0574,-0.0603,-0.06,-0.0611,-0.0612,-0.0641,-0.0692,-0.0632,-0.0633,-0.0644,-0.0764,-0.0789,-0.08,-0.07,-0.0702,-0.0703,-0.0756,0,-0.0272,-0.0329,-0.0354,-0.0419,-0.0457,-0.0485,-0.0516,-0.0549,-0.0566,-0.0594,-0.061,-0.0633,-0.0625,-0.0631,-0.0663,-0.068,-0.0716,-0.0677,-0.0728,-0.0729,-0.0741,-0.0811,-0.0761,-0.0808,-0.0764,-0.0765,-0.0766,0,-0.0287,-0.0328,-0.0391,-0.0463,-0.048,-0.0514,-0.0562,-0.0593,-0.0627,-0.0637,-0.0662,-0.0667,-0.0705,-0.0692,-0.0756,-0.0731,-0.0754,-0.0769,-0.0771,-0.0792,-0.0771,-0.0761,-0.0824,-0.0712,-0.0779,-0.0778,-0.0777,0,-0.0276,-0.0356,-0.0407,-0.0435,-0.051,-0.0536,-0.0567,-0.0604,-0.0626,-0.0659,-0.0671,-0.0714,-0.0731,-0.0773,-0.0796,-0.0782,-0.0863,-0.0848,-0.0896,-0.0897,-0.0863,-0.0859,-0.0819,-0.0911,-0.0911,-0.0911,-0.0911,0,-0.0293,-0.0339,-0.0407,-0.044,-0.0494,-0.0539,-0.0584,-0.061,-0.0645,-0.0672,-0.0689,-0.0714,-0.0754,-0.0795,-0.0819,-0.0886,-0.0887,-0.0919,-0.0926,-0.0872,-0.0868,-0.0775,-0.0779,-0.0913,-0.0913,-0.0912,-0.0912,0,-0.0285,-0.0331,-0.0394,-0.047,-0.0494,-0.0528,-0.0593,-0.0622,-0.0646,-0.0681,-0.069,-0.0728,-0.0776,-0.0815,-0.088,-0.0918,-0.0957,-0.0995,-0.0921,-0.092,-0.0873,-0.0882,-0.0996,-0.0965,-0.1069,-0.107,-0.1071,0,-0.0289,-0.032,-0.0402,-0.0437,-0.0476,-0.0532,-0.057,-0.0616,-0.0643,-0.0688,-0.0704,-0.0753,-0.0777,-0.0881,-0.0952,-0.1019,-0.0983,-0.1031,-0.101,-0.0883,-0.0897,-0.0937,-0.0903,-0.0966,-0.0967,-0.0967,-0.0967,0,-0.0298,-0.032,-0.0368,-0.0434,-0.0485,-0.0542,-0.0596,-0.0613,-0.0661,-0.0683,-0.0714,-0.0732,-0.0822,-0.0877,-0.0976,-0.1009,-0.0988,-0.1037,-0.0923,-0.0847,-0.0873,-0.0839,-0.0899,-0.0967,-0.0967,-0.0967,-0.0967,-0.0967,-0.0293,-0.0321,-0.0377,-0.0438,-0.0493,-0.0545,-0.0575,-0.0618,-0.0652,-0.0683,-0.0715,-0.0757,-0.0807,-0.0936,-0.0918,-0.0902,-0.1017,-0.09,-0.0931,-0.0987,-0.0942,-0.101,-0.1078,-0.1079,-0.1079,-0.108,-0.108,0,-0.03,-0.0333,-0.0385,-0.0457,-0.0508,-0.054,-0.0591,-0.0605,-0.0629,-0.0686,-0.0713,-0.0802,-0.0795,-0.0791,-0.0827,-0.0792,-0.0757,-0.0763,-0.0745,-0.0721,-0.0766,-0.0735,-0.071,-0.0711,-0.0711,-0.0711,-0.0711,-0.0711,-0.0305,-0.0352,-0.0381,-0.0459,-0.0505,-0.0557,-0.0577,-0.0583,-0.0619,-0.0677,-0.0761,-0.0825,-0.0839,-0.0825,-0.0673,-0.062,-0.0556,-0.0635,-0.0619,-0.0547,-0.0558,-0.0569,-0.0532,-0.0465,-0.0465,-0.0506,-0.0507,-0.0507]},{"header":{"parameterUnit":"m.s-1","parameterCategory":2,"la1":30.2991,"la2":30.254,"lo1":-89.0895,"lo2":-89.0444,"dy":0.0017,"dx":0.0017,"nx":28,"ny":28,"refTime":"2024-06-21T21:00:00:Z","depth":"0","parameterNumber":3,"parameterNumberName":"V-component_of_CURRENTS"},"data":[0,0,0,0,0,0,0,0,0,0,0,0,0,0,0,0,0,0,0,0,0,0,0,0,0,0,0,0,0,0,0,0,0,0,0,0,0,0,0,0,0,0,0,0,0,0,0,0,0,0,0,0,0,0,0,0,0,0,-0.1736,-0.1737,0,-0.1753,-0.1753,-0.1753,-0.172,-0.1719,-0.1718,-0.1717,-0.1704,-0.1704,-0.1705,0,0,0,0,0,0,0,0,0,0,0,0,0,-0.1631,-0.1634,-0.1736,-0.1737,-0.1737,-0.1753,-0.1753,-0.1753,-0.172,-0.1719,-0.1718,-0.1717,-0.1704,-0.1704,-0.1705,0,0,0,0,0,0,0,0,0,0,0,0,0,-0.1662,-0.1634,-0.1736,-0.1725,-0.1725,-0.1753,-0.1753,-0.1753,-0.172,-0.1719,-0.1718,-0.1717,-0.1704,-0.1704,-0.1705,-0.1731,0,0,-0.1706,-0.1707,0,0,0,0,0,0,0,0,-0.1661,-0.1666,-0.1726,-0.1726,-0.1726,-0.1736,-0.1711,-0.1745,-0.172,-0.1718,-0.1717,-0.1716,-0.1715,-0.1715,-0.1716,-0.173,-0.173,-0.1706,-0.1707,-0.1707,-0.1707,0,0,0,0,0,0,0,-0.1659,-0.1665,-0.1739,-0.1727,-0.1727,-0.1705,-0.1708,-0.1717,-0.172,-0.1718,-0.1717,-0.1725,-0.1714,-0.1715,-0.1715,-0.173,-0.1706,-0.1707,-0.1707,-0.1707,-0.1748,-0.1748,0,0,0,0,0,0,-0.1668,-0.1663,-0.1739,-0.174,-0.1694,-0.1708,-0.1711,-0.1731,-0.172,-0.1719,-0.1726,-0.1723,-0.1715,-0.1715,-0.1714,-0.1732,-0.1707,-0.1707,-0.1708,-0.1747,-0.1748,-0.1749,0,0,0,0,0,0,-0.1666,-0.1675,-0.1738,-0.1704,-0.1711,-0.1712,-0.1734,-0.1732,-0.1735,-0.1727,-0.1723,-0.1731,-0.1714,-0.1714,-0.173,-0.1731,-0.1708,-0.1708,-0.1746,-0.1747,-0.1748,-0.1774,0,0,0,0,0,0,-0.1663,-0.1674,-0.1692,-0.1705,-0.1713,-0.176,-0.1735,-0.1733,-0.1744,-0.174,-0.1731,-0.1728,-0.1713,-0.1729,-0.1731,-0.1731,-0.1709,-0.1745,-0.1747,-0.1748,-0.1772,-0.1776,-0.1779,0,0,0,0,0,-0.1659,-0.1696,-0.1693,-0.1702,-0.1738,-0.1761,-0.1763,-0.1756,-0.1745,-0.1753,-0.1748,-0.1728,-0.1738,-0.1731,-0.1732,-0.1733,-0.1744,-0.1746,-0.1748,-0.1771,-0.1775,-0.1779,0,0,0,0,0,0,-0.1673,-0.1697,-0.1694,-0.1739,-0.1749,-0.1757,-0.1773,-0.1765,-0.1768,-0.1764,-0.1748,-0.1746,-0.1756,-0.175,-0.1742,-0.1749,-0.1735,-0.1737,-0.1752,-0.1756,-0.1759,-0.1758,-0.1709,0,0,0,0,0,-0.1684,-0.171,-0.1725,-0.1762,-0.177,-0.1771,-0.178,-0.1774,-0.178,-0.1779,-0.1774,-0.1768,-0.1765,-0.1765,-0.1764,-0.178,-0.1763,-0.1778,-0.1782,-0.1785,-0.1785,-0.1765,-0.1766,-0.1754,-0.1754,-0.1754,0,0,-0.1702,-0.1719,-0.1735,-0.1765,-0.1774,-0.1786,-0.1773,-0.1793,-0.1797,-0.178,-0.1791,-0.1784,-0.1773,-0.1781,-0.1784,-0.1775,-0.1781,-0.1787,-0.1789,-0.1788,-0.1767,-0.1768,-0.1769,-0.1755,-0.1755,-0.1755,0,0,-0.1742,-0.1765,-0.179,-0.1796,-0.1811,-0.181,-0.1818,-0.1826,-0.1824,-0.1838,-0.1819,-0.182,-0.1824,-0.1811,-0.1805,-0.1833,-0.1801,-0.1828,-0.1843,-0.1824,-0.1825,-0.1825,-0.1808,-0.1807,-0.1829,-0.1829,-0.1829,0,-0.1761,-0.1791,-0.1802,-0.1818,-0.1822,-0.1821,-0.1834,-0.184,-0.185,-0.1852,-0.1844,-0.1842,-0.1835,-0.1833,-0.1837,-0.1839,-0.1822,-0.1826,-0.1827,-0.1827,-0.1827,-0.181,-0.1808,-0.183,-0.183,-0.183,-0.183,0,-0.1806,-0.1823,-0.1842,-0.1854,-0.1862,-0.1879,-0.1879,-0.189,-0.1887,-0.1883,-0.1888,-0.188,-0.1873,-0.1871,-0.1862,-0.1857,-0.1844,-0.1834,-0.1814,-0.1829,-0.1811,-0.1808,-0.1832,-0.1832,-0.1831,-0.1831,0,0,-0.1864,-0.1869,-0.1873,-0.1867,-0.1876,-0.1885,-0.1902,-0.191,-0.1915,-0.1919,-0.1921,-0.1918,-0.1907,-0.1901,-0.1887,-0.1873,-0.1859,-0.1853,-0.1852,-0.1832,-0.1815,-0.1779,-0.1773,-0.1844,-0.1843,-0.1843,-0.1804,0,-0.189,-0.191,-0.1906,-0.1917,-0.1924,-0.1917,-0.1928,-0.1933,-0.1936,-0.1943,-0.1933,-0.1928,-0.192,-0.191,-0.1899,-0.1869,-0.1853,-0.1871,-0.1808,-0.1806,-0.1767,-0.1769,-0.1673,-0.1627,-0.1801,-0.1801,-0.18,0,-0.1929,-0.1932,-0.1943,-0.1929,-0.1932,-0.1937,-0.1942,-0.195,-0.1959,-0.1959,-0.1957,-0.1947,-0.1935,-0.192,-0.1879,-0.1889,-0.1855,-0.1831,-0.1828,-0.1782,-0.1765,-0.1639,-0.1615,-0.1342,-0.1796,-0.1796,-0.1797,0,-0.1949,-0.1955,-0.1956,-0.1954,-0.1948,-0.1951,-0.1949,-0.1958,-0.196,-0.1966,-0.1964,-0.1953,-0.194,-0.1905,-0.1866,-0.1866,-0.1816,-0.1807,-0.1744,-0.1741,-0.1641,-0.163,-0.1339,-0.177,-0.177,-0.177,-0.1771,0,-0.1975,-0.1976,-0.1964,-0.1963,-0.1967,-0.1957,-0.1961,-0.1967,-0.1966,-0.1968,-0.1967,-0.1968,-0.1932,-0.1906,-0.1868,-0.18,-0.1816,-0.1743,-0.1726,-0.1649,-0.1639,-0.1383,-0.1264,-0.1769,-0.1769,-0.177,-0.177,0,-0.1996,-0.199,-0.1984,-0.1973,-0.1975,-0.1975,-0.1963,-0.1964,-0.1965,-0.1968,-0.1967,-0.1968,-0.1945,-0.1908,-0.1852,-0.1793,-0.1594,-0.1707,-0.1623,-0.1596,-0.1281,-0.117,-0.0988,-0.0888,-0.1624,-0.1623,-0.1622,0,-0.2002,-0.2008,-0.1991,-0.1991,-0.1986,-0.1983,-0.1982,-0.1971,-0.1972,-0.1972,-0.1977,-0.1961,-0.1961,-0.1873,-0.1788,-0.1708,-0.1536,-0.1526,-0.1507,-0.1236,-0.1099,-0.109,-0.1019,-0.1385,-0.1382,-0.138,-0.1378,0,-0.2012,-0.2007,-0.1999,-0.2002,-0.1997,-0.199,-0.1988,-0.1988,-0.1978,-0.1987,-0.2003,-0.2002,-0.193,-0.1836,-0.1711,-0.1611,-0.1306,-0.1476,-0.1201,-0.0888,-0.0852,-0.0756,-0.1442,-0.1358,-0.136,-0.1361,-0.1362,-0.1363,-0.2013,-0.2009,-0.2,-0.2004,-0.2004,-0.2001,-0.1991,-0.2,-0.2005,-0.2013,-0.2025,-0.2017,-0.1822,-0.1667,-0.1507,-0.1067,-0.1183,-0.0902,-0.0794,-0.0816,-0.0688,-0.1336,-0.1231,-0.1232,-0.1233,-0.1234,-0.1235,0,-0.2005,-0.2002,-0.2005,-0.1999,-0.2001,-0.1998,-0.1997,-0.199,-0.2006,-0.2035,-0.2054,-0.1863,-0.1583,-0.1286,-0.0784,-0.043,-0.0368,-0.0207,-0.0107,-0.0074,-0.0623,-0.0574,-0.0312,-0.0312,-0.0313,-0.0313,-0.0313,-0.0314,-0.1996,-0.1993,-0.1994,-0.1993,-0.1995,-0.1979,-0.1972,-0.1983,-0.2007,-0.198,-0.1914,-0.1872,-0.1306,-0.0431,0.0223,0.0322,0.0581,0.057,0.0653,0.039,0.0335,0.0283,0.0362,0.0815,0.0817,0.1166,0.1171,0.1174]}],[{"header":{"parameterUnit":"m.s-1","parameterCategory":2,"la1":30.2991,"la2":30.254,"lo1":-89.0895,"lo2":-89.0444,"dy":0.0017,"dx":0.0017,"nx":28,"ny":28,"refTime":"2024-06-21T21:00:00:Z","depth":"2","parameterNumber":2,"parameterNumberName":"U-component_of_CURRENTS"},"data":[0,0,0,0,0,0,0,0,0,0,0,0,0,0,0,0,0,0,0,0,0,0,0,0,0,0,0,0,0,0,0,0,0,0,0,0,0,0,0,0,0,0,0,0,0,0,0,0,0,0,0,0,0,0,0,0,0,0,-0.0839,-0.0839,0,-0.0846,-0.0846,-0.0846,-0.087,-0.087,-0.0871,-0.0872,-0.0838,-0.0837,-0.0835,0,0,0,0,0,0,0,0,0,0,0,0,0,-0.0829,-0.0829,-0.0839,-0.0839,-0.0839,-0.0847,-0.0846,-0.0846,-0.087,-0.087,-0.0871,-0.0872,-0.0839,-0.0837,-0.0835,0,0,0,0,0,0,0,0,0,0,0,0,0,-0.0832,-0.0829,-0.0839,-0.0853,-0.0855,-0.0847,-0.0846,-0.0846,-0.0869,-0.0871,-0.0872,-0.0873,-0.084,-0.0837,-0.0835,-0.0799,0,0,-0.0828,-0.0827,0,0,0,0,0,0,0,0,-0.0832,-0.0832,-0.0851,-0.0852,-0.0854,-0.086,-0.0831,-0.0829,-0.0869,-0.0862,-0.0872,-0.0873,-0.0842,-0.084,-0.0836,-0.0797,-0.0796,-0.0828,-0.0826,-0.0825,-0.0825,0,0,0,0,0,0,0,-0.0832,-0.0832,-0.0839,-0.0851,-0.0853,-0.0855,-0.0856,-0.0831,-0.0843,-0.0862,-0.0865,-0.0869,-0.0843,-0.0839,-0.0836,-0.0795,-0.0828,-0.0826,-0.0824,-0.0823,-0.0706,-0.0705,0,0,0,0,0,0,-0.0835,-0.0832,-0.0839,-0.084,-0.0848,-0.0854,-0.0856,-0.0855,-0.0845,-0.0845,-0.0868,-0.087,-0.0842,-0.0838,-0.0835,-0.0805,-0.0825,-0.0823,-0.0822,-0.0708,-0.0706,-0.0704,0,0,0,0,0,0,-0.0834,-0.0835,-0.0839,-0.0838,-0.0839,-0.0854,-0.0853,-0.0855,-0.0852,-0.085,-0.0849,-0.0863,-0.0843,-0.0838,-0.0805,-0.0803,-0.0822,-0.082,-0.071,-0.0708,-0.0705,-0.0736,0,0,0,0,0,0,-0.0834,-0.0835,-0.0823,-0.0838,-0.0839,-0.0825,-0.0852,-0.0854,-0.0854,-0.0856,-0.0844,-0.0843,-0.0843,-0.0809,-0.0803,-0.08,-0.0818,-0.0712,-0.0709,-0.0706,-0.0737,-0.0734,-0.0732,0,0,0,0,0,-0.0833,-0.0818,-0.0822,-0.0823,-0.0826,-0.0825,-0.0824,-0.0837,-0.0852,-0.084,-0.0835,-0.0843,-0.0784,-0.0805,-0.0799,-0.0796,-0.0714,-0.071,-0.0706,-0.0738,-0.0735,-0.0733,0,0,0,0,0,0,-0.0802,-0.0819,-0.0824,-0.0813,-0.0814,-0.0829,-0.0817,-0.0831,-0.0818,-0.082,-0.0822,-0.0818,-0.0789,-0.0774,-0.0797,-0.0747,-0.0749,-0.0744,-0.0775,-0.0773,-0.077,-0.0783,-0.0816,0,0,0,0,0,-0.079,-0.0782,-0.0799,-0.0784,-0.0785,-0.0799,-0.0797,-0.081,-0.0808,-0.0805,-0.0802,-0.0786,-0.0765,-0.0756,-0.0732,-0.0703,-0.0726,-0.0692,-0.069,-0.0688,-0.069,-0.0714,-0.0716,-0.0692,-0.0692,-0.0692,0,0,-0.0771,-0.078,-0.0773,-0.0776,-0.0778,-0.0777,-0.0799,-0.0796,-0.0796,-0.08,-0.0787,-0.0776,-0.0752,-0.0727,-0.0712,-0.0719,-0.0711,-0.0683,-0.0683,-0.0686,-0.0711,-0.0714,-0.0716,-0.0689,-0.069,-0.069,0,0,-0.0738,-0.0738,-0.0725,-0.073,-0.0738,-0.0748,-0.0747,-0.0762,-0.0766,-0.0751,-0.0756,-0.0743,-0.0709,-0.0705,-0.0695,-0.0657,-0.0695,-0.0644,-0.0653,-0.0676,-0.068,-0.0683,-0.0746,-0.0755,-0.0648,-0.0648,-0.0648,0,-0.0711,-0.0708,-0.0717,-0.0715,-0.072,-0.0736,-0.0732,-0.0733,-0.0736,-0.0742,-0.0744,-0.0719,-0.0701,-0.0687,-0.0677,-0.0657,-0.0691,-0.0675,-0.0679,-0.0683,-0.0686,-0.0749,-0.0758,-0.0649,-0.0649,-0.0649,-0.0649,0,-0.0681,-0.068,-0.0672,-0.0678,-0.0677,-0.0674,-0.069,-0.069,-0.0702,-0.0715,-0.0707,-0.0693,-0.0685,-0.0674,-0.0666,-0.0671,-0.0697,-0.0678,-0.0701,-0.0691,-0.0757,-0.0767,-0.0651,-0.065,-0.065,-0.065,0,0,-0.0619,-0.0647,-0.0642,-0.0652,-0.0665,-0.0665,-0.0662,-0.0672,-0.0685,-0.0685,-0.0704,-0.0671,-0.0686,-0.0673,-0.0669,-0.0688,-0.0746,-0.0696,-0.0696,-0.0786,-0.0839,-0.0854,-0.0866,-0.0738,-0.0739,-0.074,-0.0889,0,-0.0592,-0.0592,-0.0611,-0.0607,-0.0612,-0.0636,-0.0636,-0.0648,-0.0664,-0.0684,-0.0689,-0.0688,-0.0679,-0.0682,-0.0701,-0.0725,-0.0766,-0.0709,-0.0809,-0.0813,-0.085,-0.0874,-0.0663,-0.0777,-0.0899,-0.09,-0.0901,0,-0.0555,-0.0567,-0.0565,-0.0598,-0.06,-0.0604,-0.0625,-0.0628,-0.0659,-0.0671,-0.069,-0.0701,-0.0723,-0.0713,-0.0784,-0.0754,-0.0798,-0.0827,-0.0833,-0.084,-0.0844,-0.0796,-0.079,-0.0917,-0.0916,-0.0915,-0.0913,0,-0.0511,-0.0533,-0.0535,-0.0544,-0.0577,-0.0586,-0.0602,-0.0628,-0.0635,-0.067,-0.0686,-0.0721,-0.0738,-0.079,-0.085,-0.0822,-0.0952,-0.0916,-0.0984,-0.0988,-0.0822,-0.0809,-0.0979,-0.0979,-0.0978,-0.0978,-0.0978,0,-0.0476,-0.0477,-0.0523,-0.0524,-0.0538,-0.0568,-0.0583,-0.0602,-0.0633,-0.0647,-0.0679,-0.0703,-0.0755,-0.0832,-0.0883,-0.0981,-0.0984,-0.1003,-0.1023,-0.0829,-0.0815,-0.093,-0.0922,-0.0984,-0.0982,-0.0981,-0.098,0,-0.0422,-0.0449,-0.0457,-0.0499,-0.0518,-0.0524,-0.0568,-0.0581,-0.0611,-0.0634,-0.0641,-0.0702,-0.08,-0.0889,-0.0992,-0.1022,-0.111,-0.1146,-0.0942,-0.0934,-0.1129,-0.112,-0.1233,-0.1234,-0.1236,-0.1237,-0.1238,0,-0.0397,-0.0396,-0.0431,-0.0448,-0.0471,-0.0499,-0.0521,-0.0558,-0.0566,-0.0631,-0.0635,-0.0742,-0.0819,-0.1006,-0.1055,-0.1182,-0.1196,-0.1064,-0.0953,-0.1145,-0.1153,-0.1142,-0.1132,-0.0759,-0.0756,-0.0754,-0.0752,0,-0.0354,-0.0359,-0.0364,-0.0403,-0.0432,-0.0461,-0.0493,-0.0492,-0.0534,-0.0573,-0.064,-0.072,-0.0868,-0.09,-0.1055,-0.1076,-0.1021,-0.1021,-0.1262,-0.0732,-0.0711,-0.0715,-0.0718,-0.073,-0.0732,-0.0733,-0.0735,-0.0736,-0.0318,-0.0307,-0.0325,-0.0359,-0.0395,-0.0425,-0.0438,-0.0478,-0.0509,-0.0612,-0.0663,-0.0829,-0.0828,-0.1039,-0.097,-0.0896,-0.0992,-0.0892,-0.0893,-0.0898,-0.0821,-0.0804,-0.0829,-0.0831,-0.0834,-0.0836,-0.0837,0,-0.0289,-0.0283,-0.0299,-0.0336,-0.0369,-0.0404,-0.0425,-0.045,-0.0499,-0.0697,-0.0813,-0.0853,-0.0855,-0.0876,-0.0705,-0.0655,-0.0577,-0.0599,-0.045,-0.0471,-0.049,-0.0387,-0.0283,-0.0282,-0.0281,-0.0281,0,0,-0.0272,-0.0261,-0.0269,-0.0313,-0.0349,-0.0386,-0.0394,-0.0452,-0.0584,-0.0779,-0.0949,-0.1165,-0.1054,-0.0851,-0.0632,-0.0445,-0.0501,-0.0409,-0.0843,-0.0704,-0.0725,-0.0627,-0.0489,0,0,0,0,0]},{"header":{"parameterUnit":"m.s-1","parameterCategory":2,"la1":30.2991,"la2":30.254,"lo1":-89.0895,"lo2":-89.0444,"dy":0.0017,"dx":0.0017,"nx":28,"ny":28,"refTime":"2024-06-21T21:00:00:Z","depth":"2","parameterNumber":3,"parameterNumberName":"V-component_of_CURRENTS"},"data":[0,0,0,0,0,0,0,0,0,0,0,0,0,0,0,0,0,0,0,0,0,0,0,0,0,0,0,0,0,0,0,0,0,0,0,0,0,0,0,0,0,0,0,0,0,0,0,0,0,0,0,0,0,0,0,0,0,0,0.0685,0.0686,0,0.0778,0.078,0.0781,0.0779,0.0778,0.0776,0.0775,0.0806,0.0808,0.081,0,0,0,0,0,0,0,0,0,0,0,0,0,0.0559,0.0561,0.0685,0.0686,0.0687,0.0778,0.078,0.0781,0.0779,0.0778,0.0776,0.0774,0.0805,0.0808,0.081,0,0,0,0,0,0,0,0,0,0,0,0,0,0.0631,0.0562,0.0685,0.0695,0.0697,0.0778,0.078,0.0782,0.078,0.0777,0.0775,0.0773,0.0804,0.0807,0.0811,0.0876,0,0,0.0821,0.0822,0,0,0,0,0,0,0,0,0.0627,0.0636,0.0693,0.0694,0.0696,0.0762,0.0746,0.0809,0.078,0.0751,0.0775,0.0772,0.0785,0.079,0.0817,0.0878,0.0879,0.0821,0.0823,0.0824,0.0825,0,0,0,0,0,0,0,0.0622,0.0633,0.0725,0.0694,0.0696,0.0713,0.0721,0.0759,0.0781,0.0753,0.0753,0.076,0.0786,0.0814,0.0818,0.0879,0.0821,0.0824,0.0826,0.0827,0.0895,0.0895,0,0,0,0,0,0,0.0606,0.0628,0.0722,0.0727,0.0653,0.0717,0.0725,0.0746,0.0782,0.0785,0.0762,0.0759,0.081,0.0814,0.0819,0.0794,0.0824,0.0828,0.083,0.0896,0.0895,0.0895,0,0,0,0,0,0,0.0603,0.0614,0.0718,0.0676,0.069,0.072,0.0744,0.0749,0.0734,0.0788,0.079,0.0736,0.0808,0.0814,0.0829,0.0799,0.0829,0.0832,0.0896,0.0895,0.0895,0.0811,0,0,0,0,0,0,0.0599,0.0613,0.0611,0.0676,0.0692,0.0743,0.0746,0.0752,0.0743,0.074,0.0768,0.0771,0.0807,0.0824,0.0832,0.0804,0.0835,0.0896,0.0896,0.0895,0.0814,0.0808,0.0803,0,0,0,0,0,0.0595,0.0609,0.0611,0.0621,0.0693,0.0743,0.0753,0.0769,0.0743,0.0745,0.076,0.0768,0.0827,0.0827,0.0837,0.0808,0.0896,0.0896,0.0895,0.0817,0.0809,0.0803,0,0,0,0,0,0,0.0555,0.0612,0.0615,0.0645,0.0676,0.0741,0.0737,0.0745,0.0762,0.0734,0.0778,0.0785,0.0784,0.0816,0.0815,0.0829,0.0858,0.086,0.0795,0.0789,0.0783,0.0767,0.0837,0,0,0,0,0,0.0546,0.0565,0.062,0.0636,0.0643,0.0679,0.0692,0.0698,0.0727,0.0729,0.0748,0.0769,0.0802,0.0806,0.0841,0.0855,0.0859,0.0841,0.0835,0.083,0.0824,0.082,0.0813,0.0894,0.0894,0.0894,0,0,0.0532,0.0565,0.0574,0.0627,0.0644,0.0664,0.068,0.0682,0.0691,0.0731,0.0727,0.0748,0.0803,0.0817,0.0818,0.083,0.0804,0.0829,0.0824,0.0822,0.0819,0.081,0.0803,0.0893,0.0893,0.0893,0,0,0.0521,0.0539,0.0548,0.0571,0.0589,0.0621,0.0608,0.0641,0.0641,0.0654,0.0681,0.0688,0.0728,0.0768,0.0795,0.0782,0.0776,0.0774,0.0728,0.0723,0.0716,0.071,0.0677,0.0669,0.0768,0.0768,0.0767,0,0.049,0.0524,0.0556,0.0567,0.0577,0.0592,0.0595,0.0617,0.0647,0.0649,0.063,0.068,0.0713,0.0754,0.0741,0.0767,0.0746,0.0746,0.0713,0.0707,0.0702,0.0671,0.0662,0.0763,0.0764,0.0764,0.0765,0,0.0502,0.0508,0.0508,0.0532,0.055,0.0548,0.0581,0.0575,0.0559,0.0583,0.0583,0.0627,0.0651,0.066,0.0694,0.0681,0.0669,0.0704,0.0722,0.0688,0.0658,0.0651,0.0758,0.0759,0.076,0.0761,0,0,0.0467,0.0508,0.0497,0.0499,0.0521,0.0539,0.0541,0.0567,0.0554,0.0556,0.0546,0.0591,0.0577,0.0607,0.0638,0.0633,0.057,0.0632,0.0634,0.0585,0.0516,0.0602,0.0602,0.0581,0.058,0.0579,0.0498,0,0.045,0.0464,0.0493,0.0488,0.0494,0.0508,0.0517,0.0532,0.0533,0.0527,0.0549,0.0546,0.0571,0.055,0.0551,0.0572,0.0551,0.0587,0.0571,0.057,0.0639,0.0598,0.0638,0.0578,0.0491,0.049,0.0489,0,0.0445,0.0455,0.0447,0.0464,0.0463,0.0453,0.0451,0.0465,0.0475,0.0464,0.0458,0.0472,0.0468,0.0483,0.0476,0.0484,0.0482,0.0496,0.0494,0.0602,0.0644,0.0607,0.0569,0.0478,0.0478,0.0479,0.048,0,0.0413,0.0423,0.0411,0.0414,0.0434,0.0408,0.0408,0.0419,0.0417,0.0402,0.0372,0.039,0.0356,0.0372,0.0386,0.041,0.0367,0.0419,0.0496,0.05,0.0551,0.0564,0.0404,0.0404,0.0404,0.0405,0.0405,0,0.0407,0.0393,0.0376,0.0367,0.0331,0.0352,0.0315,0.0318,0.0306,0.0287,0.0311,0.0282,0.0317,0.0309,0.0343,0.0383,0.0327,0.0475,0.049,0.0523,0.0534,0.0475,0.0484,0.0402,0.0402,0.0403,0.0403,0,0.0396,0.0385,0.0361,0.0334,0.0313,0.0277,0.0247,0.024,0.0212,0.0177,0.0155,0.0162,0.0135,0.0185,0.02,0.0319,0.0364,0.039,0.0414,0.0438,0.0507,0.0513,0.048,0.0483,0.0485,0.0487,0.0488,0,0.0412,0.0394,0.0319,0.0276,0.0248,0.02,0.0179,0.0173,0.0161,0.0107,0.0084,0.004,0.0028,0.0095,0.0285,0.0379,0.0318,0.0486,0.0587,0.0499,0.0516,0.0519,0.0522,0.0589,0.0591,0.0593,0.0595,0,0.0442,0.0382,0.0354,0.0237,0.0178,0.0167,0.012,0.0099,0.0085,0.0031,-0.0039,-0.0064,0.0033,0.0197,0.0366,0.0429,0.0492,0.0533,0.0402,0.0596,0.0605,0.0622,0.062,0.061,0.0609,0.0608,0.0607,0.0606,0.0442,0.0408,0.0318,0.0215,0.015,0.012,0.0109,0.006,0.0015,-0.0075,-0.0093,-0.0067,0.0126,0.0441,0.0481,0.0584,0.0638,0.069,0.0682,0.0673,0.0733,0.0749,0.0789,0.0788,0.0788,0.0787,0.0787,0,0.0471,0.0392,0.031,0.0205,0.0153,0.0095,0.007,0.0062,-0.0018,-0.009,-0.0169,0.0133,0.0301,0.0424,0.0691,0.0827,0.0771,0.0736,0.0677,0.0668,0.0657,0.0712,0.0763,0.0762,0.0761,0.0759,0,0,0.0477,0.0409,0.0357,0.0234,0.0141,0.0106,0.0086,0.0024,-0.0004,-0.0046,0.0024,0.0097,0.0397,0.0561,0.0654,0.0706,0.0602,0.0655,0.0692,0.0599,0.0583,0.0685,0.0767,0,0,0,0,0]}],[{"header":{"parameterUnit":"m.s-1","parameterCategory":2,"la1":30.2991,"la2":30.254,"lo1":-89.0895,"lo2":-89.0444,"dy":0.0017,"dx":0.0017,"nx":28,"ny":28,"refTime":"2024-06-21T21:00:00:Z","depth":"4","parameterNumber":2,"parameterNumberName":"U-component_of_CURRENTS"},"data":[0,0,0,0,0,0,0,0,0,0,0,0,0,0,0,0,0,0,0,0,0,0,0,0,0,0,0,0,0,0,0,0,0,0,0,0,0,0,0,0,0,0,0,0,0,0,0,0,0,0,0,0,0,0,0,0,0,0,-0.074,-0.074,0,-0.0712,-0.0711,-0.0711,-0.0709,-0.0709,-0.071,-0.0711,-0.067,-0.0668,-0.0666,0,0,0,0,0,0,0,0,0,0,0,0,0,-0.0695,-0.0696,-0.074,-0.074,-0.074,-0.0712,-0.0711,-0.0711,-0.0709,-0.0709,-0.071,-0.0711,-0.067,-0.0668,-0.0666,0,0,0,0,0,0,0,0,0,0,0,0,0,-0.0692,-0.0696,-0.074,-0.0738,-0.0738,-0.0712,-0.0711,-0.071,-0.0708,-0.0709,-0.071,-0.0711,-0.0671,-0.0668,-0.0666,-0.0631,0,0,-0.0658,-0.0657,0,0,0,0,0,0,0,0,-0.0692,-0.0693,-0.0738,-0.0738,-0.0738,-0.0718,-0.0681,-0.0685,-0.0708,-0.0716,-0.0711,-0.0712,-0.0686,-0.0683,-0.067,-0.0629,-0.0628,-0.0658,-0.0656,-0.0655,-0.0655,0,0,0,0,0,0,0,-0.0693,-0.0694,-0.0725,-0.0738,-0.0738,-0.0706,-0.0707,-0.0681,-0.0693,-0.0715,-0.0716,-0.0718,-0.0686,-0.0673,-0.0669,-0.0627,-0.0658,-0.0656,-0.0654,-0.0653,-0.0587,-0.0586,0,0,0,0,0,0,-0.0708,-0.0695,-0.0726,-0.0725,-0.0721,-0.0707,-0.0708,-0.072,-0.0693,-0.0691,-0.0717,-0.0718,-0.0676,-0.0672,-0.0668,-0.0665,-0.0655,-0.0653,-0.0652,-0.0587,-0.0587,-0.0586,0,0,0,0,0,0,-0.0707,-0.0711,-0.0727,-0.0711,-0.0711,-0.0708,-0.0721,-0.0719,-0.0721,-0.0696,-0.0693,-0.0723,-0.0677,-0.0671,-0.0647,-0.0663,-0.0652,-0.065,-0.0587,-0.0587,-0.0586,-0.0635,0,0,0,0,0,0,-0.0706,-0.0711,-0.0725,-0.0713,-0.0713,-0.0718,-0.072,-0.0718,-0.0722,-0.0723,-0.0699,-0.0696,-0.0677,-0.0651,-0.0645,-0.0659,-0.0648,-0.0587,-0.0587,-0.0587,-0.0633,-0.0636,-0.0638,0,0,0,0,0,-0.0704,-0.072,-0.0726,-0.073,-0.0734,-0.0718,-0.0715,-0.0712,-0.0721,-0.0717,-0.07,-0.0697,-0.0644,-0.0648,-0.0641,-0.0655,-0.0588,-0.0587,-0.0587,-0.0632,-0.0636,-0.0638,0,0,0,0,0,0,-0.0703,-0.0721,-0.0728,-0.0748,-0.0738,-0.0719,-0.072,-0.0718,-0.0701,-0.0705,-0.0685,-0.0679,-0.0664,-0.0646,-0.0652,-0.0633,-0.0618,-0.0616,-0.0656,-0.0658,-0.0661,-0.0674,-0.0646,0,0,0,0,0,-0.0712,-0.0734,-0.0731,-0.0746,-0.0746,-0.0735,-0.0731,-0.0726,-0.0711,-0.0705,-0.0687,-0.0669,-0.0651,-0.0646,-0.0619,-0.0606,-0.0608,-0.0611,-0.0614,-0.0616,-0.062,-0.0643,-0.0649,-0.0584,-0.0584,-0.0584,0,0,-0.0716,-0.0729,-0.074,-0.0748,-0.0743,-0.0729,-0.0735,-0.073,-0.072,-0.0702,-0.0683,-0.067,-0.0646,-0.0632,-0.0625,-0.0624,-0.0633,-0.0615,-0.0618,-0.062,-0.0643,-0.065,-0.0655,-0.0584,-0.0584,-0.0584,0,0,-0.0719,-0.0746,-0.0756,-0.0747,-0.0745,-0.0735,-0.0738,-0.0722,-0.0721,-0.0695,-0.0688,-0.0687,-0.0646,-0.0645,-0.0638,-0.0635,-0.0639,-0.0629,-0.0661,-0.0683,-0.0689,-0.0695,-0.0703,-0.0708,-0.0638,-0.0639,-0.0639,0,-0.0718,-0.0731,-0.0751,-0.0745,-0.0736,-0.074,-0.0724,-0.072,-0.0695,-0.0701,-0.0693,-0.0673,-0.0654,-0.0664,-0.0663,-0.0644,-0.0652,-0.0656,-0.0689,-0.0695,-0.07,-0.0706,-0.0712,-0.0641,-0.0641,-0.064,-0.064,0,-0.0716,-0.0721,-0.0724,-0.0723,-0.0715,-0.0702,-0.0698,-0.0697,-0.0698,-0.0698,-0.0707,-0.0691,-0.0688,-0.0686,-0.067,-0.0702,-0.0694,-0.0687,-0.069,-0.071,-0.0714,-0.072,-0.0644,-0.0643,-0.0643,-0.0642,0,0,-0.0709,-0.0721,-0.0717,-0.0705,-0.0699,-0.0685,-0.0687,-0.0686,-0.07,-0.0699,-0.072,-0.0709,-0.073,-0.0723,-0.0724,-0.0748,-0.0784,-0.0737,-0.0737,-0.0758,-0.0831,-0.0757,-0.0756,-0.0792,-0.0794,-0.0795,-0.082,0,-0.069,-0.0678,-0.0689,-0.0658,-0.0641,-0.0651,-0.0649,-0.0658,-0.0675,-0.0697,-0.0729,-0.0737,-0.0738,-0.0746,-0.0776,-0.0776,-0.0801,-0.0777,-0.0796,-0.0796,-0.074,-0.076,-0.0798,-0.0824,-0.0825,-0.0826,-0.0826,0,-0.0665,-0.066,-0.0636,-0.0623,-0.0619,-0.0602,-0.0612,-0.0611,-0.0664,-0.0693,-0.0743,-0.0762,-0.0805,-0.0796,-0.0843,-0.0831,-0.0835,-0.0839,-0.084,-0.0759,-0.0733,-0.0798,-0.0836,-0.0835,-0.0835,-0.0834,-0.0833,0,-0.0625,-0.0612,-0.0592,-0.0583,-0.0578,-0.0572,-0.0568,-0.0605,-0.0615,-0.0693,-0.0724,-0.0789,-0.081,-0.0845,-0.0859,-0.0854,-0.0905,-0.0895,-0.0836,-0.0831,-0.087,-0.0864,-0.0928,-0.0928,-0.0927,-0.0927,-0.0927,0,-0.0583,-0.0562,-0.057,-0.0551,-0.0523,-0.0534,-0.0522,-0.0555,-0.0603,-0.0626,-0.0717,-0.0743,-0.0823,-0.0859,-0.0877,-0.0873,-0.0922,-0.0844,-0.0836,-0.0887,-0.0882,-0.0874,-0.0867,-0.0928,-0.0928,-0.0928,-0.0928,0,-0.053,-0.0542,-0.0511,-0.0506,-0.0498,-0.0473,-0.0466,-0.0468,-0.0543,-0.058,-0.0603,-0.0704,-0.0752,-0.0824,-0.0872,-0.0871,-0.0885,-0.087,-0.092,-0.0914,-0.0791,-0.0787,-0.0805,-0.0803,-0.0801,-0.0799,-0.0798,0,-0.0502,-0.0485,-0.0467,-0.0446,-0.0435,-0.0405,-0.0384,-0.0426,-0.0431,-0.0537,-0.0543,-0.0623,-0.0686,-0.0713,-0.0788,-0.0838,-0.0829,-0.0842,-0.0818,-0.079,-0.0781,-0.0779,-0.0777,-0.0795,-0.0794,-0.0794,-0.0793,0,-0.0442,-0.0445,-0.0426,-0.0389,-0.0353,-0.0314,-0.0288,-0.0283,-0.0345,-0.0422,-0.047,-0.0529,-0.0587,-0.0648,-0.0703,-0.0733,-0.0842,-0.0822,-0.0826,-0.0802,-0.0778,-0.077,-0.077,-0.0787,-0.0788,-0.0788,-0.0789,0,-0.0398,-0.0376,-0.0364,-0.0324,-0.0286,-0.0236,-0.0223,-0.0215,-0.0225,-0.0345,-0.0343,-0.0465,-0.0543,-0.059,-0.0633,-0.0671,-0.066,-0.0652,-0.0664,-0.0673,-0.0624,-0.0573,-0.0514,0,0,0,0,0,-0.0347,-0.033,-0.0299,-0.0258,-0.0225,-0.0207,-0.0173,-0.0172,-0.0222,-0.0231,-0.0291,-0.0344,-0.0435,-0.0485,-0.05,-0.0581,-0.0666,-0.0598,-0.0662,-0.0749,-0.0757,-0.0715,0,0,0,0,0,0,-0.0319,-0.0293,-0.0289,-0.0221,-0.0189,-0.0142,-0.0117,-0.0146,-0.014,-0.0212,-0.0246,-0.0329,-0.0403,-0.0435,-0.0502,-0.0521,-0.0553,-0.0664,-0.0663,-0.0745,-0.0752,-0.0758,-0.0718,0,0,0,0,0]},{"header":{"parameterUnit":"m.s-1","parameterCategory":2,"la1":30.2991,"la2":30.254,"lo1":-89.0895,"lo2":-89.0444,"dy":0.0017,"dx":0.0017,"nx":28,"ny":28,"refTime":"2024-06-21T21:00:00:Z","depth":"4","parameterNumber":3,"parameterNumberName":"V-component_of_CURRENTS"},"data":[0,0,0,0,0,0,0,0,0,0,0,0,0,0,0,0,0,0,0,0,0,0,0,0,0,0,0,0,0,0,0,0,0,0,0,0,0,0,0,0,0,0,0,0,0,0,0,0,0,0,0,0,0,0,0,0,0,0,0.0728,0.0729,0,0.0785,0.0785,0.0786,0.0816,0.0816,0.0817,0.0817,0.0853,0.0853,0.0854,0,0,0,0,0,0,0,0,0,0,0,0,0,0.0634,0.0636,0.0728,0.0729,0.073,0.0785,0.0785,0.0786,0.0816,0.0816,0.0817,0.0817,0.0852,0.0853,0.0854,0,0,0,0,0,0,0,0,0,0,0,0,0,0.068,0.0636,0.0728,0.0752,0.0755,0.0785,0.0785,0.0786,0.0816,0.0816,0.0817,0.0817,0.0852,0.0853,0.0854,0.0857,0,0,0.0858,0.0859,0,0,0,0,0,0,0,0,0.0678,0.0684,0.0748,0.075,0.0754,0.0794,0.0766,0.0809,0.0816,0.0792,0.0817,0.0817,0.0832,0.0835,0.0844,0.0859,0.0861,0.0858,0.0859,0.0859,0.086,0,0,0,0,0,0,0,0.0675,0.0681,0.0749,0.0748,0.0752,0.0756,0.0763,0.0774,0.0809,0.0794,0.0797,0.0804,0.0833,0.0842,0.0845,0.0861,0.0858,0.0859,0.086,0.086,0.0876,0.0876,0,0,0,0,0,0,0.067,0.0679,0.0748,0.0751,0.0716,0.0758,0.0765,0.078,0.0809,0.0814,0.0804,0.0806,0.084,0.0843,0.0846,0.0845,0.0859,0.0861,0.0861,0.0877,0.0876,0.0876,0,0,0,0,0,0,0.0668,0.0676,0.0745,0.0716,0.0726,0.0759,0.0776,0.0781,0.0799,0.0817,0.0822,0.0817,0.0841,0.0844,0.0856,0.0847,0.0861,0.0862,0.0877,0.0876,0.0876,0.0847,0,0,0,0,0,0,0.0665,0.0675,0.0688,0.0716,0.0727,0.0763,0.0776,0.0782,0.0804,0.0806,0.083,0.0833,0.0841,0.0855,0.0858,0.0849,0.0863,0.0877,0.0877,0.0876,0.0848,0.0846,0.0843,0,0,0,0,0,0.0662,0.068,0.0689,0.0697,0.0743,0.0764,0.0769,0.0793,0.0804,0.081,0.0824,0.0833,0.0853,0.0855,0.0859,0.085,0.0878,0.0877,0.0876,0.0849,0.0846,0.0843,0,0,0,0,0,0,0.065,0.0686,0.0696,0.0726,0.0742,0.0769,0.0784,0.0796,0.0814,0.0818,0.0833,0.0837,0.0842,0.0852,0.0855,0.0853,0.0865,0.0865,0.0843,0.084,0.0838,0.0826,0.0864,0,0,0,0,0,0.0652,0.0676,0.0701,0.0725,0.0734,0.0758,0.0772,0.0784,0.0802,0.0812,0.0826,0.0838,0.084,0.0846,0.0853,0.0857,0.088,0.0852,0.085,0.0847,0.084,0.0871,0.0871,0.0873,0.0873,0.0873,0,0,0.0655,0.0678,0.0691,0.0723,0.0741,0.0743,0.0767,0.0787,0.0782,0.0811,0.0816,0.0832,0.084,0.0839,0.0842,0.0848,0.086,0.0847,0.0845,0.0839,0.0871,0.0871,0.087,0.0873,0.0873,0.0873,0,0,0.0661,0.069,0.0704,0.0713,0.0736,0.0745,0.0749,0.0775,0.0781,0.0787,0.0801,0.0812,0.0825,0.0825,0.0826,0.0815,0.0846,0.0819,0.0797,0.0827,0.0827,0.0827,0.0864,0.0868,0.0817,0.0817,0.0817,0,0.066,0.068,0.071,0.0714,0.0715,0.0741,0.0735,0.0744,0.0767,0.0762,0.0783,0.0801,0.0812,0.0802,0.0797,0.0808,0.0836,0.0807,0.0824,0.0825,0.0826,0.0863,0.0867,0.0816,0.0816,0.0816,0.0816,0,0.0666,0.0677,0.0685,0.0695,0.0696,0.0701,0.0705,0.0706,0.0718,0.0725,0.073,0.0758,0.0767,0.0772,0.0781,0.0785,0.0808,0.0818,0.0832,0.0824,0.0863,0.0869,0.0814,0.0814,0.0814,0.0815,0,0,0.0675,0.0686,0.0688,0.0676,0.0683,0.0681,0.0664,0.0654,0.0634,0.0671,0.066,0.0679,0.0709,0.0712,0.0735,0.076,0.0795,0.0791,0.0793,0.0827,0.0874,0.0814,0.0815,0.0816,0.0816,0.0816,0.0902,0,0.0667,0.0665,0.0669,0.0647,0.0639,0.0635,0.0609,0.0599,0.06,0.0597,0.0634,0.064,0.0681,0.0691,0.0725,0.0774,0.0807,0.0771,0.0876,0.0879,0.0827,0.0818,0.0818,0.0906,0.0908,0.0909,0.0909,0,0.0667,0.0662,0.0648,0.0607,0.0601,0.059,0.0544,0.0525,0.0517,0.053,0.0557,0.0577,0.062,0.0659,0.0758,0.0739,0.0801,0.0847,0.0852,0.0806,0.0828,0.0915,0.0919,0.0919,0.0918,0.0917,0.0917,0,0.0656,0.0639,0.0624,0.0616,0.0583,0.0564,0.0542,0.0512,0.0492,0.05,0.0506,0.055,0.0595,0.0671,0.0771,0.0766,0.0887,0.0891,0.09,0.0898,0.0941,0.094,0.0958,0.0958,0.0957,0.0957,0.0957,0,0.0641,0.0629,0.0624,0.0616,0.0581,0.0555,0.052,0.05,0.0481,0.0464,0.049,0.0495,0.0603,0.0672,0.076,0.0851,0.0889,0.0889,0.0908,0.0928,0.0924,0.0946,0.0944,0.096,0.096,0.0959,0.0959,0,0.0635,0.0636,0.0619,0.0591,0.0585,0.0563,0.0528,0.0496,0.0485,0.047,0.0475,0.0484,0.0565,0.0673,0.0798,0.0836,0.0923,0.095,0.0973,0.0994,0.0916,0.0911,0.0943,0.0941,0.094,0.0939,0.0938,0,0.063,0.0626,0.0619,0.0616,0.0613,0.0588,0.0565,0.0528,0.0496,0.0456,0.0447,0.0487,0.0518,0.0657,0.076,0.0912,0.0928,0.0961,0.0916,0.0895,0.0911,0.0908,0.0905,0.0936,0.0935,0.0935,0.0935,0,0.0615,0.063,0.0619,0.0623,0.0614,0.0589,0.0555,0.0519,0.0465,0.0469,0.0416,0.0436,0.0522,0.0615,0.0746,0.085,0.0921,0.0947,0.095,0.0908,0.0887,0.0904,0.0902,0.093,0.0931,0.0931,0.0931,0,0.0614,0.0613,0.0618,0.0613,0.0613,0.0578,0.0551,0.05,0.0457,0.0397,0.0384,0.0446,0.0488,0.0583,0.0697,0.0794,0.0795,0.079,0.0801,0.0808,0.0728,0.0679,0.0667,0,0,0,0,0,0.0604,0.0606,0.0602,0.0593,0.0598,0.0597,0.0535,0.0499,0.0444,0.0404,0.0383,0.0449,0.0533,0.0558,0.0647,0.0681,0.0829,0.078,0.0835,0.0904,0.091,0.0832,0,0,0,0,0,0,0.0595,0.0602,0.0598,0.0589,0.059,0.0576,0.0535,0.0488,0.0447,0.0407,0.0462,0.0461,0.0573,0.0529,0.0662,0.0683,0.0715,0.0833,0.0832,0.0901,0.0906,0.0911,0.0832,0,0,0,0,0]}]]